Weather History for Harrison, AR

Change the Weather History Date:

Wednesday, March 6, 2013

  Actual Average Record
Temperature  
Mean Temperature 36 °F 46 °F  
Max Temperature 47 °F 56 °F 87 °F (1974)
Min Temperature 24 °F 35 °F 8 °F (1899)
Degree Days  
Heating Degree Days 29 19  
Month to date heating degree days 171 121  
Since 1 July heating degree days 3075 3293  
Cooling Degree Days 0 0  
Month to date cooling degree days 0 0  
Year to date cooling degree days 1 0  
Moisture  
Dew Point 19 °F    
Average Humidity 54    
Maximum Humidity 74    
Minimum Humidity 34    
Precipitation  
Precipitation 0.00 in 0.11 in 1.25 in (1933)
Month to date precipitation 0.01 0.64  
Year to date precipitation 6.63 5.84  
Snow  
Snow 0.00 in 0.10 in 5.00 in (2008)
Month to date snowfall 0.3 0.6  
Since 1 July snowfall 3.1 9.8  
Snow Depth 0.00 in    
Sea Level Pressure  
Sea Level Pressure 30.33 in    
Wind  
Wind Speed 6 mph (NW)    
Max Wind Speed 16 mph    
Max Gust Speed 25 mph    
Visibility 10 miles    
Events      
T = Trace of Precipitation, MM = Missing Value Source: NWS Daily Summary

Daily Weather History Graph

Daily Weather History Graph

Search for Another Location

Airport:

Trip Planner

Search our weather history database for the weather conditions in past years. The results will help you decide how hot, cold, wet, or windy it might be!

Date:

Astronomy

Mar. 06, 2013 Rise Set
Actual Time 6:35 AM CST 6:12 PM CST
Civil Twilight 6:10 AM CST 6:37 PM CST
Nautical Twilight 5:40 AM CST 7:07 PM CST
Astronomical Twilight 5:10 AM CST 7:37 PM CST
Moon 2:38 AM CST (3/6) 1:01 PM CST (3/6)
Length of Visible Light 12h 27m
Length of Day
11h 36m
Waning Crescent, 29% of the Moon is Illuminated
Mar 6
Waning Crescent
Mar 11
New
Mar 19
First Quarter
Mar 27
Full
Apr 2
Last Quarter

Hourly Weather History & Observations

Time (CST) Temp. Windchill Dew Point Humidity Pressure Visibility Wind Dir Wind Speed Gust Speed Precip Events Conditions
12:53 AM 28.9 °F 19.8 °F 19.0 °F 67% 30.28 in 10.0 mi NW 10.4 mph 19.6 mph N/A   Clear
1:53 AM 28.0 °F 18.6 °F 18.0 °F 66% 30.29 in 10.0 mi NW 10.4 mph 19.6 mph N/A   Clear
2:53 AM 27.0 °F 16.7 °F 18.0 °F 69% 30.30 in 10.0 mi NW 11.5 mph 19.6 mph N/A   Clear
3:53 AM 26.1 °F 16.2 °F 18.0 °F 71% 30.31 in 10.0 mi NW 10.4 mph - N/A   Clear
4:53 AM 26.1 °F 16.8 °F 18.0 °F 71% 30.34 in 10.0 mi NW 9.2 mph - N/A   Partly Cloudy
5:06 AM 26.6 °F 18.2 °F 17.6 °F 69% 30.32 in 10.0 mi NW 8.1 mph - N/A   Mostly Cloudy
5:53 AM 25.0 °F 17.1 °F 18.0 °F 75% 30.36 in 10.0 mi NW 6.9 mph - N/A   Mostly Cloudy
6:14 AM 24.8 °F 16.1 °F 17.6 °F 74% 30.33 in 10.0 mi NW 8.1 mph - N/A   Scattered Clouds
6:53 AM 24.1 °F 16.0 °F 17.1 °F 75% 30.38 in 10.0 mi NW 6.9 mph - N/A   Clear
7:53 AM 27.0 °F 16.1 °F 17.1 °F 66% 30.39 in 10.0 mi NNW 12.7 mph 19.6 mph N/A   Clear
8:53 AM 28.9 °F 19.8 °F 17.1 °F 61% 30.41 in 10.0 mi North 10.4 mph 18.4 mph N/A   Partly Cloudy
9:53 AM 32.0 °F 25.6 °F 18.0 °F 56% 30.41 in 10.0 mi NW 6.9 mph - N/A   Clear
10:53 AM 35.1 °F 31.0 °F 19.0 °F 52% 30.40 in 10.0 mi Variable 4.6 mph - N/A   Clear
11:53 AM 39.0 °F 33.4 °F 19.0 °F 45% 30.39 in 10.0 mi WNW 8.1 mph - N/A   Clear
12:53 PM 39.9 °F 35.8 °F 19.0 °F 43% 30.36 in 10.0 mi WNW 5.8 mph - N/A   Clear
1:53 PM 43.0 °F 38.2 °F 19.9 °F 40% 30.34 in 10.0 mi WNW 8.1 mph - N/A   Clear
2:53 PM 45.0 °F 40.1 °F 19.9 °F 37% 30.32 in 10.0 mi NW 9.2 mph - N/A   Clear
3:53 PM 46.0 °F 42.5 °F 19.9 °F 35% 30.31 in 10.0 mi NW 6.9 mph - N/A   Clear
4:53 PM 44.1 °F 41.5 °F 19.9 °F 38% 30.31 in 10.0 mi Variable 4.6 mph - N/A   Clear
5:53 PM 42.1 °F - 19.0 °F 40% 30.31 in 10.0 mi Calm Calm - N/A   Clear
6:53 PM 41.0 °F - 19.0 °F 41% 30.30 in 10.0 mi Calm Calm - N/A   Clear
7:53 PM 37.9 °F - 19.9 °F 48% 30.31 in 8.0 mi Calm Calm - N/A   Clear
8:53 PM 36.0 °F - 19.9 °F 52% 30.31 in 10.0 mi Calm Calm - N/A   Clear
9:53 PM 36.0 °F 33.3 °F 23.0 °F 59% 30.29 in 9.0 mi East 3.5 mph - N/A   Clear
10:53 PM 36.0 °F - 23.0 °F 59% 30.29 in 10.0 mi Calm Calm - N/A   Clear
11:53 PM 36.0 °F 33.3 °F 24.1 °F 62% 30.27 in 10.0 mi East 3.5 mph - N/A   Clear